Regional Weather Roundup
Issued by NWS Binghamton, NY

Home | Current Version | Previous Version | Text Only | Print | Product List | Glossary On
Versions: 1 2 3 4 5 6 7 8 9 10 11 12 13 14 15 16 17 18 19 20 21 22 23 24 25 26 27 28 29 30 31 32 33 34 35 36 37 38 39 40 41 42 43 44 45 46 47 48 49 50
000
ASUS41 KBGM 302210
RWRBGM
RWRBGM
BINGHAMTON REGIONAL WEATHER ROUNDUP
NATIONAL WEATHER SERVICE BINGHAMTON NY
500 PM EST FRI JAN 30 2015

Note: "fair" indicates few or no clouds below 12,000 feet with no
significant weather and/or obstructions to visibility.

* = Station(s) that does not report precipitation, such as rain,
snow, etc, also no thunder or fog.

!NYZ009-015>018-022>025-036-037-044>046-055>057-062-302300
...CENTRAL NEW YORK...

CITY           SKY/WX    TMP DP  RH WIND       PRES   REMARKS
BINGHAMTON     LGT SNOW  12   7  80 NW14G24   30.00R VSB 1   WCI  -3
CORTLAND       LGT SNOW  14  12  92 W8G22     30.08R VSB 1   WCI   3
DANSVILLE      CLOUDY    15   3  59 NW20G26   30.22R WCI  -2
ELMIRA         CLOUDY    17   6  62 NW7G17    30.14R WCI   8
ITHACA         NOT AVBL
HAMILTON       CLOUDY    16  10  79 N10G18    30.04  VSB 3/4 WCI   3
MONTICELLO     CLOUDY    19  10  68 W18G26    29.91R WCI   4
NORWICH        MOCLDY    14   5  67 N9G20     30.05  WCI   2
ONEONTA        LGT SNOW  12   7  79 NW9       29.94R WCI   0
PENN YAN       LGT SNOW  13   4  67 NW17G28   30.14S WCI  -4
ROME           CLOUDY    13   5  70 NW20      30.11R WCI  -5
SIDNEY         CLOUDY    18   9  68 NW12G26   30.03  WCI   5
SYRACUSE       LGT SNOW  14  12  92 NW14      30.14R BLWGSNOWWCI  -1
$$

!PAZ038>040-043-044-047-048-072-302300
...NORTHEAST PENNSYLVANIA...

CITY           SKY/WX    TMP DP  RH WIND       PRES   REMARKS
HAZLETON       CLOUDY    23  12  63 NW20G29   29.97R WCI   8
SCRANTON       MIX PCPN  22   9  57 NW18G31   30.01R WCI   7
TOWANDA*       MOCLDY    19   9  63 NW13      30.12R WCI   7
$$
&&
KEY
WCI = WIND CHILL INDEX
VSB = VISIBILITY
HX  = HEAT INDEX
$$


USA.gov is the U.S. government's official web portal to all federal, state and local government web resources and services.